Погода в Негомбо

Шри-Ланка     7°12′37″N   79°50′31″E
темп.,
°C
ветер,
м/с
пор.,
м/с
влажн.,
%
обл.,
%
осадки,
мм/ч
давл.,
гПа
погр.,
м
28 сентября, вт
вт2823:30+28зюз9147988 0.3 10091193
02:30+28зюз10148391 0.6 10061192
05:30+28зюз111582100 3.1 10071180
08:30+28зюз91480100 0.9 10101075
11:30+28зюз91382100 2.5 10101120
14:30+28з91479100 1.0 10071273
17:30+28зюз81279100 2.2 10071045
20:30+28зюз71282100 1.4 1010982
29 сентября, ср
ср2923:30+28зюз8118298 1.5 10101034
02:30+28зюз81081100 0.5 1008978
05:30+27зюз81082100 1.2 1008789
08:30+27зюз7982100 3.8 1011579
11:30+28зюз71081100 5.9 1010642
14:30+28з798290 1.6 1007753
17:30+28зюз6881100 1.8 1008910
20:30+28зюз5882100 0.4 1010853
30 сентября, чт
чт3023:30+28зюз5882100 0.6 1010911
02:30+28зюз7982100 0.1 1008941
05:30+28зюз7982100 0.5 1008953
08:30+28зюз6983100 1.3 1011849
11:30+28з7880100 2.0 1010903
14:30+28з7780100 0.9 1007806
17:30+28зсз5580100 1.2 1007633
20:30+27з4581100 1.8 1010388
1 октября, пт
пт123:30+28зюз3474100 3.6 1009613
02:30+27з568297 2.8 1007469
05:30+27зсз5677100 9.2 1008411
08:30+25ссз3386100 4.7 1010373
11:30+25зсз3490100 8.6 1009382
14:30+25з6790100 7.9 1007559
17:30+24зсз5693100 20.9 1007481
20:30+25з6791100 14.9 1009589
2 октября, сб
сб223:30+25зюз7791100 26.7 1008598
02:30+25з8990100 17.2 1006578
05:30+25з101287100 24.6 1007772
08:30+26з111287100 5.6 1008831
11:30+26з111286100 10.5 1007852
14:30+27з111184100 4.2 1005882
17:30+27з101182100 7.5 1006876
20:30+27з101181100 2.3 1007902